THOR ABLESTAR DEB, 172

Orbit data source: Space-Track

THOR ABLESTAR DEB, 172 is space debris in LEO originally from a launch on Thu, 29 Jun 1961 UTC launched from the Air Force Eastern Test Range (AFETR). Debris objects in space refer to the collection of defunct objects orbiting the Earth. Examples of debris include non-operational satellites, rocket bodies, and fragments generated from explosions, collisions, or faulty payload assembly.

Loading next visibility...
Identifier
172, 1961-015AY
Orbit
LEO
Country
Flag of USUS
Related business
Manufacturer
Unknown
Mission
Spacecraft
Bus & Motor
Unknown
Mass
Unknown
Launch date (UTC)
1961-06-29 (64 years ago)
Launch vehicle
Unknown
Launch site
Air Force Eastern Test Range (AFETR)
Object type
Payload
Rocket body
Debris
Shape & HBR
Unknown shape, 0.2 m
Radar Cross Section
Small (<0.1 m²)

Expand to show TLE details & history
Last TLE update: 14 hours ago

TLE from 14 hours ago
0 THOR ABLESTAR DEB
1 00172U 61015AY  25291.60105760  .00000680  00000-0  95603-3 0  9997
2 00172  67.0701   1.2229 0138953 237.2917 121.4687 13.59066746172285
Epoch: 2025-10-18T14:25Z
TLE epoch observation values (Epoch: 2025-10-18T14:25:31.376Z)
Latitude
-0.00004°
Longitude
117.51241°
Altitude
1,095.989 km
Speed
7.278 km/s
True Right ascension
00h 04m 53s
True Declination
0° 00' 00"
Sunlit
Object was in full shadow at epoch
Visualization orbit readout
Latitude
Unknown
Longitude
Unknown
Altitude
Unknown
Speed
Unknown
Apparent Right ascension
Unknown
Apparent Declination
Unknown
Sunlit
N/A
Visualization observer readout
Local Sidereal Time
23:32:28
Azimuth
Unknown
Elevation
Unknown
Doppler factor
Unknown
Orbital elements
Apogee altitude
1,140.515 km
Perigee altitude
934.431 km
Semi-major axis
7,415.61 km
Eccentricity
0.0139
Inclination
67.0701°
RAAN
1.2229°
Arg. of periapsis
237.2917°
True anomaly
122.81447°
Mean anomaly
121.4687°
Eccentric anomaly
122.14281°
Mean motion
3.39878 °/min
Orbital period
105.92 mins
BSTAR
0.00095603

Documentation

Showing up to 5 results
|